Weather History for Odessa, TX

Change the Weather History Date:

Friday, May 4, 2012

  Actual Average (KMAF) Record (KMAF)
Temperature  
Mean Temperature 82 °F 70 °F  
Max Temperature 98 °F 85 °F 103 °F (1947)
Min Temperature 66 °F 56 °F 38 °F (1978)
Cooling Degree Days 17 6  
Month to date cooling degree days 23  
Year to date cooling degree days 131  
Growing Degree Days 32 (Base 50)    
Moisture  
Dew Point 37 °F    
Average Humidity 28    
Maximum Humidity 59    
Minimum Humidity 5    
Precipitation  
Precipitation 0.00 in 0.04 in 1.29 in (1969)
Month to date precipitation 0.13  
Year to date precipitation 2.65  
Sea Level Pressure  
Sea Level Pressure 29.80 in    
Wind  
Wind Speed 8 mph (SW)    
Max Wind Speed 16 mph    
Max Gust Speed 26 mph    
Visibility 10 miles    
Events      
T = Trace of Precipitation, MM = Missing Value Source: NWS Daily Summary

Daily Weather History Graph

Daily Weather History Graph

Search for Another Location

Airport:

Trip Planner

Search our weather history database for the weather conditions in past years. The results will help you decide how hot, cold, wet, or windy it might be!

Date:

Astronomy

May. 04, 2012 Rise Set
Actual Time 7:00 AM CDT 8:32 PM CDT
Civil Twilight 6:34 AM CDT 8:58 PM CDT
Nautical Twilight 6:03 AM CDT 9:30 PM CDT
Astronomical Twilight 5:30 AM CDT 10:03 PM CDT
Moon 7:15 PM CDT (5/4) 5:38 AM CDT (5/4)
Length of Visible Light 14h 24m
Length of Day
13h 31m
Waxing Gibbous, 97% of the Moon is Illuminated
May 4
Waxing Gibbous
May 5
Full
May 12
Last Quarter
May 20
New
May 28
First Quarter

Hourly Weather History & Observations

Time (CDT) Temp. Heat Index Dew Point Humidity Pressure Visibility Wind Dir Wind Speed Gust Speed Precip Events Conditions
12:53 AM 73.9 °F - 46.9 °F 38% 29.83 in 10.0 mi SSW 6.9 mph - N/A   Clear
1:53 AM 72.0 °F - 46.9 °F 41% 29.82 in 10.0 mi South 6.9 mph - N/A   Clear
2:53 AM 70.0 °F - 46.9 °F 44% 29.81 in 10.0 mi SW 4.6 mph - N/A   Clear
3:53 AM 68.0 °F - 46.9 °F 47% 29.81 in 10.0 mi Calm Calm - N/A   Clear
4:53 AM 69.1 °F - 48.9 °F 49% 29.81 in 10.0 mi South 6.9 mph - N/A   Clear
5:53 AM 68.0 °F - 51.1 °F 55% 29.82 in 10.0 mi SSW 5.8 mph - N/A   Clear
6:53 AM 66.0 °F - 50.0 °F 56% 29.82 in 10.0 mi SW 4.6 mph - N/A   Clear
7:53 AM 68.0 °F - 53.1 °F 59% 29.84 in 10.0 mi Calm Calm - N/A   Clear
8:53 AM 73.0 °F - 55.0 °F 53% 29.85 in 10.0 mi South 9.2 mph - N/A   Clear
9:53 AM 78.1 °F - 52.0 °F 40% 29.86 in 10.0 mi SSW 10.4 mph - N/A   Clear
10:53 AM 82.9 °F - 43.0 °F 24% 29.86 in 10.0 mi SW 8.1 mph - N/A   Clear
11:53 AM 88.0 °F - 34.0 °F 15% 29.86 in 10.0 mi SW 10.4 mph 16.1 mph N/A   Clear
12:53 PM 91.9 °F - 23.0 °F 8% 29.84 in 10.0 mi WSW 11.5 mph - N/A   Clear
1:53 PM 95.0 °F - 21.0 °F 7% 29.82 in 10.0 mi SW 10.4 mph 17.3 mph N/A   Clear
2:53 PM 95.0 °F - 24.1 °F 8% 29.80 in 10.0 mi SSW 16.1 mph 21.9 mph N/A   Clear
3:53 PM 98.1 °F - 19.9 °F 6% 29.77 in 8.0 mi WSW 11.5 mph 26.5 mph N/A   Clear
4:53 PM 97.0 °F - 17.1 °F 5% 29.74 in 10.0 mi SW 15.0 mph 23.0 mph N/A   Clear
5:53 PM 96.1 °F - 15.1 °F 5% 29.73 in 10.0 mi SW 11.5 mph 21.9 mph N/A   Clear
6:53 PM 95.0 °F - 16.0 °F 6% 29.71 in 10.0 mi WSW 8.1 mph - N/A   Clear
7:53 PM 93.0 °F - 16.0 °F 6% 29.71 in 10.0 mi West 11.5 mph 20.7 mph N/A   Clear
8:53 PM 87.1 °F - 16.0 °F 7% 29.73 in 10.0 mi West 5.8 mph - N/A   Clear
9:53 PM 86.0 °F - 27.0 °F 12% 29.75 in 10.0 mi SW 8.1 mph - N/A   Clear
10:53 PM 84.9 °F - 51.1 °F 31% 29.78 in 10.0 mi South 13.8 mph 21.9 mph N/A   Clear
11:53 PM 82.0 °F 82.7 °F 61.0 °F 49% 29.78 in 10.0 mi South 12.7 mph - N/A   Clear